Temperature
15 16 16 16 16 17 18 21 23 23 24 24 24 24 23 22 22 19 18 18 17 17 17 17 17 16 16 16 16 16 16 16 16 16 16 16 16 16 16 16 16 15 15 15 15 15 15 15 15
15 15 15 16 16 17 19 21 22 23 23 23 23 23 23 21 20 18 18 17 17 17 17 17 16 16 16 16 16 16 16 16 16 16 16 16 16 15 15 15 15 15 15 15 15 15 15 15 15
14 15 16 16 17 18 20 22 22 22 23 22 22 22 21 20 18 17 17 17 16 16 16 16 16 16 16 16 16 16 16 16 16 16 16 16 16 15 15 15 15 15 15 15 15 15 15 15 15
14 15 16 16 17 19 20 22 22 22 22 22 21 21 19 18 17 17 17 16 16 15 15 16 16 16 16 15 16 16 16 16 15 15 15 15 15 15 15 15 15 15 15 15 15 15 15 15 15
14 15 15 16 17 19 20 22 22 21 21 21 21 20 18 17 17 17 16 16 15 15 15 15 15 15 15 15 15 15 15 15 15 15 15 15 15 15 15 15 15 15 15 15 15 15 15 15 15
14 15 15 16 18 19 20 21 21 21 21 21 20 19 17 16 16 16 16 15 15 15 15 15 15 15 15 15 15 15 15 15 15 15 15 15 15 15 15 15 15 15 15 15 15 15 15 15 14
14 14 15 17 18 18 19 20 20 19 19 19 19 18 16 16 15 15 15 15 15 14 14 14 14 14 15 15 15 15 15 15 15 15 15 15 15 15 14 14 14 14 14 14 14 14 14 14 14
13 14 15 16 17 17 18 19 19 18 18 18 18 17 15 14 14 14 14 14 14 14 14 14 14 14 14 14 14 14 14 14 14 14 14 14 14 14 14 14 14 14 14 14 14 14 14 14 14
13 13 13 15 16 17 17 17 17 17 17 17 16 15 14 14 14 13 13 14 14 14 14 14 14 14 14 14 14 14 14 14 14 14 14 14 14 14 14 14 14 14 14 14 14 14 14 14 14
13 12 13 15 15 15 16 16 16 16 15 15 14 14 13 13 13 13 13 13 13 13 13 13 13 13 13 13 14 14 13 13 13 13 13 13 13 13 13 13 14 14 13 13 13 13 13 13 13
12 12 13 14 14 14 14 14 14 14 13 14 13 12 12 12 12 12 12 12 12 13 13 13 13 13 13 13 13 13 13 13 13 13 13 13 13 13 13 13 13 13 13 13 13 13 13 13 13
12 12 13 13 13 13 13 13 13 13 13 13 13 12 11 11 11 11 11 11 12 12 12 12 12 13 13 13 13 13 13 12 12 12 12 13 13 13 13 13 13 13 13 13 13 12 12 12 12
11 12 12 12 12 12 12 12 12 12 12 12 12 11 11 11 11 11 11 11 11 11 12 12 12 12 12 12 12 13 13 12 12 12 12 12 12 12 13 13 13 12 12 12 12 12 12 12 12
11 11 11 11 11 11 11 11 11 10 11 11 11 11 10 10 10 10 10 11 11 11 11 11 12 12 12 12 12 12 12 12 12 12 12 12 12 12 12 12 12 12 12 12 12 12 12 12 12
10 10 10 10 11 11 11 9 9 10 10 11 10 10 10 9 9 10 10 10 10 10 10 11 11 11 11 12 12 12 12 12 12 12 12 12 12 12 12 12 12 12 12 12 12 12 11 11 11
10 9 8 10 10 11 10 8 9 10 10 10 10 10 9 9 9 9 9 9 10 10 10 10 11 11 11 11 12 12 12 12 12 12 12 12 12 12 12 12 12 12 12 12 11 11 11 11 11
8 7 8 9 10 10 9 8 9 9 9 9 9 9 9 9 9 9 9 9 9 9 9 10 10 10 11 11 11 11 12 12 12 12 12 12 12 12 12 12 11 11 11 11 11 11 11 11 11
6 7 8 8 9 9 8 7 8 9 9 9 9 9 9 8 8 8 8 8 9 9 9 9 10 10 10 10 11 11 11 11 11 11 12 12 11 11 11 11 11 11 11 11 11 11 10 11 10
7 7 7 8 9 8 7 7 7 8 8 8 8 8 8 8 8 8 8 8 8 8 9 9 9 9 10 10 10 10 11 11 11 11 11 11 11 11 11 11 11 11 11 11 11 11 10 10 10
6 6 7 7 8 8 7 7 7 7 7 7 7 7 7 7 7 7 7 7 7 8 8 8 9 9 9 9 10 10 10 10 10 10 11 11 11 11 11 11 11 11 10 10 10 10 10 10 10
6 6 6 6 6 7 6 6 7 7 7 7 7 7 7 7 7 7 7 7 7 7 7 8 8 8 8 9 9 9 10 10 10 10 10 10 10 11 11 11 11 11 10 10 10 10 10 10 9
5 6 6 5 5 5 6 4 6 6 6 6 6 6 6 6 6 6 6 6 6 6 7 7 7 8 8 8 9 9 9 9 10 10 10 10 10 10 10 10 10 10 10 10 10 10 10 10 9
5 5 5 5 5 4 5 4 5 6 5 5 5 6 5 5 5 5 5 6 6 6 6 6 7 7 7 8 8 8 9 9 9 9 9 10 10 10 10 10 10 10 10 10 10 9 9 9 9
5 5 5 5 4 3 4 4 4 5 5 5 5 5 5 4 4 4 5 5 5 6 6 6 6 7 7 7 8 8 8 8 9 9 9 9 9 9 9 9 10 10 10 9 9 9 9 9 9
4 3 3 3 3 3 5 4 4 5 5 5 5 4 4 4 4 4 4 4 4 5 5 5 6 6 6 7 7 7 8 8 8 9 9 9 9 9 9 9 9 9 9 9 9 9 9 9 9
2 2 2 2 2 3 4 3 4 5 4 4 4 4 4 3 3 3 3 4 4 4 5 5 5 5 6 6 7 7 7 7 8 8 8 8 9 9 9 9 9 9 9 9 9 9 9 8 8
2 2 3 2 2 2 3 4 4 4 3 3 3 3 3 3 3 3 3 3 4 4 4 4 5 5 5 6 6 6 6 7 7 7 8 8 8 8 8 8 8 8 8 8 8 8 8 8 8
2 2 1 1 1 2 3 3 2 1 2 2 2 2 2 2 2 2 2 3 3 3 4 4 4 5 5 5 5 6 6 6 6 7 7 7 8 8 8 8 8 8 8 8 8 8 8 7 7
0 0 0 1 2 1 2 2 2 1 1 1 1 1 1 1 2 2 2 2 2 3 3 3 4 4 4 4 5 5 5 6 6 6 7 7 7 7 7 8 8 8 8 8 7 7 7 7 7
0 -0 -1 -1 -0 1 1 0 1 1 1 0 0 0 0 1 1 1 2 2 2 2 3 3 3 3 4 4 4 4 5 5 5 6 6 6 7 7 7 7 7 7 7 7 7 7 7 7 7
Wind_Speed
12 11 6 2 3 5 10 8 6 4 0 3 5 4 5 4 4 7 5 9 14 15 18 17 16 16 16 15 14 13 13 14 14 13 14 14 14 14 14 14 14 14 15 15 16 16 16 16 16
11 7 4 3 4 7 8 9 8 4 3 4 4 3 3 4 7 7 6 9 13 15 17 16 16 17 16 15 14 13 13 14 14 13 14 14 13 13 13 13 14 14 15 15 15 16 15 15 15
10 6 4 4 6 9 6 4 2 3 6 4 2 2 1 3 6 5 7 10 12 13 15 16 17 16 16 15 14 13 13 13 13 14 14 13 13 13 13 14 14 14 15 15 15 15 15 14 14
4 3 4 6 13 11 8 4 1 4 4 3 2 2 3 5 4 5 8 9 11 12 14 17 17 16 16 15 14 13 13 13 13 13 14 13 13 13 13 14 14 14 14 15 15 14 14 13 13
4 4 6 9 15 11 8 5 2 2 4 4 3 2 3 5 8 8 7 8 10 10 12 16 16 16 16 15 14 14 13 13 13 13 13 13 13 13 13 14 14 14 15 15 14 14 13 13 12
4 4 7 13 13 11 8 6 3 4 3 3 3 2 3 5 7 6 6 7 8 10 12 14 15 15 15 15 14 14 13 12 12 12 12 13 13 13 13 13 14 14 14 15 14 14 13 12 12
4 5 10 12 11 9 7 3 3 3 3 3 2 2 4 5 5 4 5 6 8 10 10 10 12 14 14 14 14 14 13 13 13 12 12 12 12 13 13 13 13 14 14 14 14 13 13 12 11
4 4 9 10 10 9 4 2 1 2 1 1 2 1 3 4 4 4 5 5 7 8 8 8 9 11 12 12 14 14 13 13 12 12 12 13 12 12 13 12 13 14 14 14 13 13 12 11 10
5 5 8 8 7 5 2 2 2 3 1 1 3 3 5 7 6 5 4 5 5 5 6 6 6 7 9 11 12 13 13 13 12 12 13 12 11 11 11 12 13 13 14 13 13 12 11 10 9
5 7 9 6 6 5 4 3 2 2 1 1 2 6 7 6 5 4 3 3 4 4 4 4 5 6 7 9 11 11 11 11 10 11 11 9 9 10 10 11 12 13 13 13 12 11 10 8 6
5 7 7 7 7 6 5 4 2 2 2 2 1 3 4 4 3 4 3 3 3 3 2 3 4 5 6 5 7 7 8 9 10 10 10 8 9 9 10 10 10 11 10 9 10 9 7 6 6
6 8 7 6 6 6 4 4 3 3 3 3 2 3 4 3 3 4 3 2 2 2 2 2 2 3 4 5 5 6 6 6 7 8 9 8 6 6 7 7 8 8 7 7 7 5 6 6 7
9 8 6 6 5 5 5 5 4 5 4 3 1 2 3 3 3 2 3 3 2 2 2 2 2 3 3 4 4 6 6 6 8 8 8 8 6 5 5 5 6 7 7 6 5 5 5 6 7
6 7 7 6 5 5 6 5 4 4 4 2 2 2 3 3 3 2 2 2 2 2 2 2 2 2 3 3 3 4 6 7 8 7 8 8 7 6 5 5 5 5 7 6 5 5 5 5 6
6 7 7 7 6 5 4 6 6 5 5 4 3 3 3 3 2 3 2 2 2 2 2 2 2 2 3 3 3 4 6 7 7 7 8 8 8 7 6 5 4 5 7 7 6 6 6 5 5
6 6 6 6 7 6 5 7 4 3 3 3 3 3 3 3 3 2 2 2 2 2 2 2 2 2 2 2 2 4 6 7 7 7 7 7 8 8 6 5 4 6 7 6 4 4 4 4 4
3 5 7 6 5 4 5 5 3 2 2 2 3 2 3 2 2 2 2 2 2 3 3 2 2 2 2 3 2 3 5 6 6 7 7 6 7 8 7 5 6 7 5 5 4 4 4 4 4
5 6 7 6 5 4 5 6 3 2 2 3 2 2 2 2 2 2 2 2 3 3 3 3 3 2 2 3 2 2 3 4 5 6 7 7 7 8 7 5 6 7 4 4 4 5 4 4 4
7 8 10 9 4 4 7 6 5 3 3 3 3 2 3 3 2 1 2 2 3 3 3 4 3 3 3 3 3 3 3 4 3 5 7 8 8 8 7 6 6 6 4 5 5 5 6 4 4
9 10 9 7 4 4 6 7 6 4 4 3 3 3 3 2 1 1 1 1 2 3 4 4 3 3 3 3 3 3 3 3 3 3 6 8 8 8 7 7 6 6 4 5 6 5 4 3 3
8 7 6 7 7 6 5 6 7 4 4 3 3 3 2 2 2 1 1 1 1 2 3 4 3 3 3 3 2 3 3 2 3 3 4 5 8 8 8 7 6 6 5 5 6 6 6 5 3
8 6 8 8 5 4 4 5 5 4 3 3 3 3 2 2 2 1 1 1 0 1 2 3 3 2 2 3 4 5 4 4 4 4 4 5 8 8 8 8 7 6 5 4 5 5 4 5 4
6 8 9 9 6 5 5 4 4 4 3 3 2 2 2 1 1 1 1 1 1 1 1 2 2 2 1 3 3 4 3 3 3 4 5 5 5 7 8 8 7 6 5 5 5 5 5 4 4
7 6 7 6 4 5 6 5 4 3 4 3 2 2 2 2 1 0 1 1 2 1 1 1 2 2 1 2 2 2 3 4 5 5 5 5 4 4 6 7 7 6 5 5 5 6 6 4 4
4 2 1 2 3 4 3 3 4 2 1 1 2 1 2 1 1 0 1 1 1 1 1 1 2 2 1 1 2 2 2 3 5 5 5 5 5 4 6 5 5 5 5 6 5 5 5 5 5
3 2 2 2 3 2 2 4 2 2 3 4 2 1 2 2 1 1 1 1 1 2 1 1 1 2 2 2 2 2 2 2 2 3 4 4 4 5 6 6 6 5 6 5 5 5 4 4 4
3 3 4 3 4 3 3 3 1 5 5 5 5 4 3 2 2 2 2 2 2 1 1 1 2 2 2 2 2 2 1 1 2 2 2 2 3 4 6 6 6 5 6 5 5 4 4 5 5
3 3 2 2 2 3 4 4 1 4 6 6 5 4 4 4 3 2 2 1 1 1 1 1 1 2 2 1 2 2 2 1 2 3 3 2 3 3 5 6 6 6 5 5 5 4 4 5 4
3 3 3 3 2 2 3 1 3 4 5 5 6 6 6 5 3 2 2 2 1 1 2 1 2 2 2 2 2 1 1 1 2 2 2 2 2 3 5 5 6 6 6 5 5 5 5 6 5
1 2 2 1 3 3 3 2 5 7 7 7 8 8 7 6 5 4 3 2 2 2 2 1 2 2 2 1 2 1 1 1 2 3 2 2 2 2 3 4 5 5 5 5 6 6 6 6 6
Wind_Direction
294 273 261 254 242 233 238 241 251 251 55 27 27 13 6 6 39 103 124 110 115 127 135 139 136 134 131 127 124 127 128 126 124 123 121 117 115 113 109 107 105 102 101 101 98 95 94 92 92
287 277 258 234 233 232 235 227 234 243 112 67 43 18 11 43 65 99 106 107 118 127 135 139 137 135 132 129 126 124 126 127 126 124 121 120 116 114 109 107 106 105 102 101 99 97 94 92 92
271 260 245 221 226 232 240 236 190 89 89 104 99 30 7 56 79 89 100 112 117 124 132 136 137 136 134 131 128 127 125 126 127 125 123 120 116 115 112 108 105 105 103 103 101 99 96 93 92
260 228 244 241 238 237 252 281 56 113 108 116 133 107 89 54 49 86 104 112 117 123 129 135 138 137 136 134 131 128 129 127 124 126 124 121 118 115 113 110 108 106 106 107 105 102 99 96 95
244 237 228 236 241 243 253 266 277 178 165 165 174 160 91 67 70 88 106 116 119 122 121 136 139 139 139 137 135 132 130 129 126 123 127 125 121 117 112 112 111 110 109 108 108 106 103 101 98
235 232 230 234 239 237 242 247 245 238 198 181 169 182 113 84 72 90 103 110 115 119 120 135 140 139 139 139 138 134 133 131 128 127 125 127 124 120 115 115 115 114 113 110 108 107 106 104 100
247 241 241 247 247 242 244 249 231 235 211 199 170 159 129 83 62 75 95 102 108 111 119 129 139 140 137 137 138 136 133 131 129 128 124 123 126 123 120 117 118 117 114 112 110 108 107 105 102
269 270 250 248 250 249 261 277 278 309 238 32 69 137 140 107 76 72 87 91 101 112 120 128 135 140 140 138 138 135 133 130 128 127 125 122 123 126 123 119 120 120 118 116 114 112 110 108 104
265 248 243 246 258 271 334 308 333 9 359 353 36 35 78 107 96 85 84 83 87 105 122 126 136 136 140 144 142 136 133 131 128 130 130 127 125 127 126 122 123 122 122 121 119 118 116 112 108
220 233 242 272 302 307 328 329 333 321 253 290 36 49 77 99 111 113 112 111 103 97 115 129 130 136 137 146 144 144 142 141 137 137 137 134 126 126 127 127 128 126 126 126 127 124 122 117 114
223 237 258 285 315 325 321 320 321 271 260 270 121 114 106 107 124 135 145 137 129 123 107 127 136 132 132 133 144 142 143 145 144 145 143 135 126 123 123 125 126 129 130 129 131 134 133 131 123
246 256 267 286 314 319 305 304 288 272 290 344 27 129 140 159 169 167 166 162 134 115 107 107 103 130 133 132 142 142 139 139 139 145 144 133 121 119 125 132 142 141 138 134 135 135 129 119 112
248 260 267 279 287 285 282 271 281 292 312 323 355 136 167 182 188 192 173 160 144 135 120 112 109 124 134 131 138 140 136 134 131 137 147 139 128 129 123 125 134 138 140 138 134 123 113 99 96
254 271 270 274 270 271 267 269 264 278 283 264 214 196 200 200 201 194 180 170 172 164 146 133 120 114 114 134 136 140 141 137 131 133 140 140 135 128 132 124 123 126 130 130 125 117 104 94 94
267 266 259 251 245 247 255 261 250 260 265 251 225 213 196 213 210 202 191 196 190 177 160 144 148 119 120 133 146 139 139 135 134 138 145 143 141 137 133 127 124 130 132 128 116 108 102 99 98
255 250 250 241 228 224 219 248 256 271 251 250 236 220 200 204 206 211 193 198 202 171 165 161 161 132 128 120 134 142 137 131 130 135 139 146 147 144 134 131 135 134 131 127 120 119 114 105 100
232 245 250 258 225 227 221 253 267 284 232 252 249 235 210 204 219 215 201 182 194 186 171 162 151 141 136 125 118 139 131 129 130 133 135 142 144 143 136 136 135 137 129 125 130 124 122 118 111
242 257 255 253 233 238 230 245 262 276 254 246 253 258 254 219 236 242 212 178 175 185 176 163 157 152 137 130 117 124 135 125 129 131 135 143 144 143 137 133 138 135 133 134 129 130 118 122 123
267 260 266 267 249 245 239 245 251 253 256 259 263 271 275 251 237 232 233 182 167 168 174 171 164 159 142 147 152 154 163 153 143 139 142 145 145 145 138 137 141 138 145 151 142 130 128 122 118
274 268 270 282 282 256 244 254 256 237 247 264 275 277 281 286 273 232 230 179 176 170 173 169 165 165 160 166 171 165 164 164 147 137 146 147 146 149 151 146 148 145 146 149 148 135 136 141 141
270 261 276 287 293 253 247 258 248 238 231 268 288 289 297 298 280 256 236 239 165 165 173 180 180 174 164 155 151 139 131 149 156 161 166 155 152 151 152 152 146 147 149 159 158 154 147 157 167
271 283 285 281 278 258 229 260 241 223 239 261 276 295 301 304 313 340 352 331 2 169 166 171 177 164 152 144 159 162 165 173 177 166 162 160 156 153 156 155 150 147 152 157 163 157 153 154 165
285 295 275 268 258 267 249 244 254 206 248 278 308 320 333 343 335 332 330 332 18 53 128 161 165 153 146 157 169 162 165 165 163 158 155 165 157 155 159 157 156 153 157 161 164 162 161 164 165
302 293 270 247 233 246 238 224 264 226 231 261 318 346 345 338 330 359 9 19 40 59 77 127 151 145 146 156 158 156 158 160 159 159 163 169 165 157 157 159 158 159 160 167 171 167 172 176 172
336 335 317 255 220 237 213 215 242 242 237 229 231 288 326 322 304 61 46 33 44 67 79 90 141 142 142 151 149 156 164 178 175 169 171 169 169 164 165 159 161 161 163 169 169 167 174 176 176
288 271 234 242 251 276 217 221 227 66 41 28 40 62 19 360 3 52 80 58 63 71 82 97 138 129 141 159 160 158 166 188 187 173 169 168 170 168 164 164 162 163 165 170 173 171 178 175 181
307 279 271 275 279 265 239 225 218 22 25 20 23 27 15 9 33 39 46 61 58 61 65 114 159 147 151 171 162 153 155 178 177 156 143 153 151 158 161 164 167 169 168 173 171 173 182 182 188
324 315 314 273 265 255 247 229 298 353 357 1 8 10 9 3 22 35 27 33 50 63 77 91 100 132 149 146 139 156 161 168 164 150 146 148 157 157 160 165 168 170 172 175 179 180 179 183 192
354 352 319 275 267 259 255 259 11 9 13 7 1 7 3 357 0 16 15 15 37 75 85 78 88 83 89 89 76 82 128 154 148 147 150 154 166 163 162 168 171 173 171 172 180 186 183 191 195
61 5 340 291 286 270 268 270 14 20 22 16 5 3 4 2 4 -0 357 7 40 63 70 72 77 82 91 100 104 94 70 124 160 159 166 161 169 173 169 168 172 173 171 172 177 185 188 190 192
Height
1500 1502 1504 1507 1509 1509 1503 1491 1483 1482 1481 1483 1485 1486 1488 1492 1496 1507 1507 1506 1506 1507 1510 1513 1516 1518 1521 1523 1526 1528 1530 1532 1534 1536 1538 1539 1541 1542 1544 1545 1546 1548 1549 1550 1551 1552 1553 1554 1555
1500 1503 1506 1507 1509 1509 1498 1487 1484 1482 1482 1485 1487 1489 1491 1495 1498 1502 1504 1506 1507 1508 1510 1513 1516 1519 1521 1524 1526 1529 1531 1533 1535 1537 1539 1540 1542 1543 1545 1546 1548 1549 1550 1551 1553 1554 1555 1556 1557
1500 1503 1505 1503 1502 1499 1491 1481 1480 1481 1483 1486 1489 1492 1494 1498 1500 1502 1504 1506 1507 1509 1511 1513 1516 1519 1522 1524 1527 1529 1531 1534 1536 1537 1539 1541 1543 1544 1546 1547 1549 1550 1551 1553 1554 1555 1557 1558 1559
1501 1504 1503 1502 1495 1487 1484 1480 1479 1482 1485 1487 1490 1494 1497 1501 1501 1503 1504 1506 1507 1509 1511 1514 1517 1519 1522 1525 1527 1529 1532 1534 1536 1538 1540 1541 1543 1545 1547 1548 1550 1551 1553 1554 1555 1557 1558 1559 1560
1501 1501 1501 1498 1490 1484 1481 1480 1481 1482 1485 1488 1490 1493 1497 1500 1501 1502 1504 1506 1508 1510 1512 1514 1517 1520 1522 1525 1527 1530 1532 1534 1536 1538 1540 1542 1544 1545 1547 1549 1550 1552 1554 1555 1556 1558 1559 1560 1562
1500 1497 1498 1494 1485 1480 1480 1480 1481 1482 1484 1487 1490 1494 1498 1500 1500 1502 1504 1506 1508 1510 1512 1514 1517 1520 1522 1525 1527 1530 1532 1534 1536 1538 1540 1542 1544 1546 1548 1549 1551 1553 1554 1556 1557 1559 1560 1561 1563
1498 1495 1491 1485 1482 1480 1479 1480 1481 1483 1484 1488 1490 1493 1497 1499 1500 1502 1504 1507 1509 1510 1512 1514 1517 1520 1522 1525 1527 1529 1532 1534 1536 1538 1540 1542 1544 1546 1548 1550 1552 1553 1555 1556 1558 1560 1561 1562 1564
1495 1493 1487 1483 1482 1480 1480 1481 1482 1484 1485 1489 1490 1493 1496 1498 1499 1501 1504 1506 1508 1510 1512 1514 1516 1519 1521 1524 1527 1529 1531 1533 1536 1538 1540 1542 1544 1546 1548 1550 1552 1554 1555 1557 1559 1560 1562 1563 1565
1493 1495 1488 1484 1482 1481 1481 1482 1484 1485 1487 1489 1491 1494 1495 1496 1498 1500 1503 1505 1508 1510 1511 1513 1516 1518 1520 1523 1526 1528 1530 1533 1535 1537 1540 1542 1544 1546 1548 1550 1552 1554 1556 1558 1559 1561 1562 1564 1565
1491 1491 1485 1483 1483 1483 1482 1483 1485 1486 1487 1489 1491 1492 1494 1496 1497 1499 1501 1503 1505 1508 1510 1513 1515 1517 1519 1522 1524 1527 1529 1532 1534 1537 1539 1541 1543 1545 1548 1550 1552 1554 1556 1558 1560 1561 1563 1564 1566
1487 1486 1485 1485 1485 1485 1484 1485 1486 1487 1489 1490 1492 1493 1494 1496 1497 1499 1501 1502 1504 1506 1509 1511 1514 1516 1518 1520 1523 1526 1528 1531 1533 1536 1538 1540 1543 1545 1547 1549 1551 1553 1555 1557 1559 1561 1563 1564 1566
1486 1485 1486 1486 1486 1486 1486 1487 1487 1488 1490 1491 1491 1492 1493 1495 1496 1498 1500 1501 1503 1505 1507 1509 1511 1514 1516 1519 1521 1524 1527 1529 1532 1535 1537 1539 1542 1544 1546 1548 1550 1552 1554 1556 1559 1561 1563 1564 1566
1486 1485 1485 1486 1486 1487 1487 1487 1488 1488 1489 1490 1491 1492 1492 1494 1495 1497 1499 1500 1501 1503 1505 1507 1509 1512 1514 1517 1519 1522 1525 1528 1530 1533 1536 1538 1540 1542 1545 1547 1549 1551 1554 1556 1558 1560 1562 1564 1566
1485 1485 1485 1485 1485 1486 1486 1486 1488 1487 1488 1488 1489 1490 1491 1492 1494 1495 1496 1498 1499 1501 1503 1505 1507 1510 1512 1515 1517 1520 1522 1525 1529 1531 1534 1536 1539 1541 1543 1546 1548 1550 1552 1555 1557 1559 1561 1563 1565
1485 1485 1484 1484 1484 1484 1486 1486 1486 1486 1486 1487 1487 1489 1490 1491 1492 1493 1494 1496 1497 1499 1501 1502 1505 1507 1510 1512 1515 1517 1520 1523 1526 1529 1532 1535 1537 1540 1542 1544 1547 1549 1551 1554 1556 1558 1560 1562 1564
1484 1485 1485 1481 1480 1481 1487 1487 1484 1484 1484 1485 1486 1487 1488 1489 1490 1491 1492 1494 1495 1497 1498 1500 1503 1505 1507 1510 1512 1515 1518 1520 1523 1527 1530 1533 1535 1538 1540 1543 1545 1547 1550 1552 1555 1557 1559 1561 1563
1485 1486 1483 1480 1478 1479 1483 1485 1483 1482 1483 1483 1484 1485 1486 1486 1487 1489 1490 1491 1493 1494 1496 1498 1500 1502 1505 1507 1510 1513 1516 1518 1521 1524 1527 1530 1533 1536 1538 1541 1543 1546 1548 1550 1553 1555 1557 1559 1562
1488 1485 1481 1480 1478 1479 1482 1482 1481 1482 1482 1482 1483 1483 1484 1484 1485 1486 1487 1488 1490 1492 1493 1495 1497 1499 1502 1505 1507 1510 1512 1515 1518 1521 1524 1528 1531 1533 1536 1539 1541 1544 1546 1548 1551 1554 1556 1558 1560
1483 1482 1481 1477 1475 1479 1479 1480 1480 1480 1480 1480 1481 1481 1482 1482 1483 1483 1484 1486 1487 1488 1490 1492 1494 1496 1498 1501 1504 1506 1509 1512 1515 1518 1521 1524 1528 1531 1533 1536 1539 1541 1544 1546 1549 1551 1554 1557 1559
1483 1482 1480 1477 1475 1477 1478 1479 1477 1477 1478 1479 1479 1479 1479 1480 1480 1480 1481 1482 1483 1485 1486 1488 1490 1492 1495 1498 1501 1504 1506 1509 1512 1515 1518 1521 1524 1527 1530 1533 1536 1539 1541 1544 1546 1549 1552 1554 1557
1482 1482 1482 1481 1478 1476 1478 1478 1474 1473 1474 1476 1476 1476 1477 1477 1477 1477 1478 1479 1480 1481 1483 1485 1487 1489 1492 1495 1498 1500 1503 1505 1508 1511 1514 1518 1521 1524 1527 1530 1533 1536 1538 1541 1544 1546 1549 1551 1554
1483 1479 1480 1480 1482 1481 1477 1483 1472 1471 1471 1472 1473 1473 1474 1474 1475 1475 1475 1476 1477 1479 1481 1482 1484 1486 1489 1491 1494 1496 1498 1501 1504 1508 1511 1514 1517 1521 1524 1527 1530 1533 1536 1539 1541 1544 1546 1549 1551
1482 1480 1478 1478 1480 1482 1477 1482 1474 1468 1470 1470 1470 1471 1472 1472 1472 1472 1473 1473 1474 1476 1478 1480 1482 1483 1486 1488 1491 1493 1496 1498 1501 1505 1508 1511 1514 1517 1520 1523 1526 1530 1533 1535 1538 1541 1543 1546 1548
1482 1479 1475 1475 1479 1485 1476 1478 1476 1470 1469 1469 1469 1470 1470 1470 1470 1470 1471 1471 1472 1473 1475 1477 1479 1480 1482 1485 1487 1490 1493 1495 1498 1501 1504 1508 1510 1514 1517 1519 1523 1526 1529 1532 1535 1537 1540 1543 1545
1484 1486 1487 1484 1483 1480 1470 1474 1475 1468 1466 1467 1468 1468 1469 1469 1469 1468 1468 1469 1470 1471 1472 1474 1476 1477 1480 1482 1484 1487 1490 1493 1495 1498 1501 1504 1506 1509 1513 1516 1519 1522 1525 1528 1531 1533 1536 1539 1541
1488 1489 1493 1493 1486 1478 1471 1475 1471 1467 1467 1467 1467 1467 1468 1468 1468 1467 1467 1468 1469 1469 1471 1472 1474 1475 1477 1480 1482 1485 1486 1489 1492 1495 1498 1500 1503 1506 1510 1513 1516 1519 1522 1525 1528 1530 1533 1536 1538
1491 1491 1488 1490 1485 1485 1476 1470 1469 1467 1467 1467 1466 1466 1466 1467 1467 1467 1467 1467 1468 1468 1470 1471 1473 1474 1476 1478 1479 1481 1483 1486 1488 1491 1494 1497 1500 1503 1506 1510 1513 1516 1518 1521 1524 1526 1529 1532 1534
1492 1491 1492 1492 1492 1486 1475 1472 1477 1474 1471 1469 1468 1467 1467 1466 1466 1466 1466 1466 1467 1468 1469 1470 1471 1472 1474 1476 1476 1478 1480 1483 1485 1488 1491 1494 1497 1500 1502 1506 1509 1512 1515 1518 1520 1523 1526 1528 1530
1496 1496 1494 1490 1487 1488 1483 1482 1478 1476 1475 1474 1472 1470 1468 1467 1466 1466 1466 1466 1466 1466 1467 1468 1469 1470 1471 1473 1474 1475 1477 1480 1482 1484 1487 1491 1494 1496 1499 1502 1504 1508 1511 1514 1517 1519 1522 1524 1526
1497 1498 1499 1499 1494 1487 1486 1488 1479 1478 1477 1476 1474 1472 1470 1468 1467 1467 1466 1465 1465 1465 1466 1466 1467 1468 1469 1470 1471 1473 1475 1477 1479 1481 1484 1487 1490 1492 1495 1498 1501 1504 1506 1509 1512 1514 1517 1519 1522